This is the latest recevied weather packets stored in our database for station/object SQ3MKP-13. If no packets are shown the sender has not sent any weather packets the latest 10 day(s).
| Time | Temp. | Humidity | Pressure | Rain* | Wind** | Luminosity | Snow |
|---|---|---|---|---|---|---|---|
| 1777809955 | 27.22° C | 26% | 1004 hPa | - | - | 671 W/m² | - |
| 1777809654 | 27.22° C | 26% | 1004 hPa | - | - | 672 W/m² | - |
| 1777809353 | 27.22° C | 26% | 1004 hPa | - | - | 681 W/m² | - |
| 1777809052 | 27.22° C | 26% | 1004 hPa | - | - | 681 W/m² | - |
| 1777808751 | 27.22° C | 25% | 1004 hPa | - | - | 684 W/m² | - |
| 1777808450 | 27.22° C | 26% | 1004.1 hPa | - | - | 692 W/m² | - |
| 1777808149 | 27.22° C | 26% | 1004.1 hPa | - | - | 694 W/m² | - |
| 1777807848 | 26.67° C | 25% | 1004.3 hPa | - | - | 697 W/m² | - |
| 1777807547 | 26.67° C | 26% | 1004.3 hPa | - | - | 701 W/m² | - |
| 1777807246 | 26.67° C | 26% | 1004.3 hPa | - | - | 703 W/m² | - |
| 1777806946 | 26.67° C | 26% | 1004.4 hPa | - | - | 704 W/m² | - |
| 1777806644 | 26.67° C | 27% | 1004.4 hPa | - | - | 701 W/m² | - |
| 1777806343 | 26.67° C | 26% | 1004.4 hPa | - | - | 699 W/m² | - |
| 1777806042 | 26.67° C | 26% | 1004.5 hPa | - | - | 698 W/m² | - |
| 1777805741 | 26.11° C | 25% | 1004.6 hPa | - | - | 698 W/m² | - |
| 1777805440 | 26.11° C | 25% | 1004.5 hPa | - | - | 697 W/m² | - |
| 1777805140 | 26.11° C | 30% | 1004.7 hPa | - | - | 692 W/m² | - |
| 1777804839 | 25.56° C | 29% | 1004.7 hPa | - | - | 688 W/m² | - |
| 1777804538 | 26.11° C | 29% | 1004.8 hPa | - | - | 693 W/m² | - |
| 1777804237 | 26.11° C | 29% | 1004.8 hPa | - | - | 691 W/m² | - |
| 1777803936 | 25.56° C | 28% | 1004.8 hPa | - | - | 693 W/m² | - |
| 1777803635 | 26.11° C | 28% | 1005 hPa | - | - | 696 W/m² | - |
| 1777803334 | 25.56° C | 30% | 1004.9 hPa | - | - | 698 W/m² | - |
| 1777803033 | 25° C | 33% | 1005 hPa | - | - | 678 W/m² | - |
| 1777802732 | 25.56° C | 33% | 1005 hPa | - | - | 678 W/m² | - |
* Rain since midnight (hover to see other rain measurements)
** Current wind speed in m/s (hover to see current wind gust speed)